• In Deutschland
  • Länderverzeichnis
  • Für 7 Tage
  • Wassertemperatur
  • Satellitenkarten
  • Wetterkarte
  • Widgets
  • user-avatar
    Anmelden

    Stündliche Wetter Ivancevo

    Heute, 15 August, Mittwoch

    Zeit Temperatur Niederschläge Wind Luftdruck Luftfeuchtigkeit
    00:00 +18°C° 0,9 mm 2 m/S 744 mmHg 95%
    01:00 +18°C° 0,9 mm 2 m/S 743 mmHg 96%
    02:00 +18°C° 0,9 mm 2 m/S 743 mmHg 97%
    03:00 +18°C° 0,8 mm 2 m/S 742 mmHg 97%
    04:00 +18°C° 0,8 mm 2 m/S 742 mmHg 97%
    05:00 +18°C° 0,8 mm 3 m/S 742 mmHg 97%
    06:00 +18°C° 0,1 mm 3 m/S 741 mmHg 96%
    07:00 +19°C° 0,1 mm 3 m/S 741 mmHg 94%
    08:00 +20°C° 0,1 mm 4 m/S 741 mmHg 93%
    09:00 +20°C° 0,1 mm 4 m/S 742 mmHg 88%
    10:00 +21°C° 0,1 mm 4 m/S 742 mmHg 84%
    11:00 +21°C° 0,1 mm 4 m/S 742 mmHg 79%
    12:00 +22°C° 0 mm 4 m/S 742 mmHg 74%
    13:00 +23°C° 0 mm 4 m/S 743 mmHg 69%
    14:00 +23°C° 0 mm 4 m/S 743 mmHg 64%
    15:00 +24°C° 0,1 mm 3 m/S 743 mmHg 67%
    16:00 +24°C° 0,1 mm 3 m/S 743 mmHg 70%
    17:00 +24°C° 0,1 mm 2 m/S 743 mmHg 73%
    18:00 +21°C° 0,3 mm 2 m/S 744 mmHg 80%
    19:00 +19°C° 0,3 mm 2 m/S 744 mmHg 87%
    20:00 +19°C° 0,3 mm 1 m/S 744 mmHg 94%
    21:00 +18°C° 0 mm 1 m/S 744 mmHg 95%
    22:00 +18°C° 0 mm 1 m/S 745 mmHg 96%
    23:00 +16°C° 0 mm 1 m/S 745 mmHg 97%

    Morgen, 16 August, Donnerstag

    Zeit Temperatur Niederschläge Wind Luftdruck Luftfeuchtigkeit
    00:00 +16°C° 0 mm 1 m/S 745 mmHg 97%
    01:00 +16°C° 0 mm 1 m/S 745 mmHg 98%
    02:00 +15°C° 0 mm 1 m/S 746 mmHg 98%
    03:00 +15°C° 0 mm 1 m/S 746 mmHg 98%
    04:00 +15°C° 0 mm 1 m/S 746 mmHg 98%
    05:00 +15°C° 0 mm 1 m/S 746 mmHg 98%
    06:00 +16°C° 0 mm 1 m/S 747 mmHg 96%
    07:00 +16°C° 0 mm 1 m/S 747 mmHg 95%
    08:00 +17°C° 0 mm 2 m/S 747 mmHg 93%
    09:00 +17°C° 0 mm 2 m/S 748 mmHg 89%
    10:00 +18°C° 0 mm 2 m/S 748 mmHg 86%
    11:00 +19°C° 0 mm 2 m/S 748 mmHg 83%
    12:00 +19°C° 0 mm 2 m/S 749 mmHg 80%
    13:00 +19°C° 0 mm 2 m/S 749 mmHg 77%
    14:00 +20°C° 0 mm 2 m/S 749 mmHg 74%
    15:00 +20°C° 0 mm 2 m/S 749 mmHg 73%
    16:00 +20°C° 0 mm 2 m/S 749 mmHg 73%
    17:00 +20°C° 0 mm 2 m/S 749 mmHg 72%
    18:00 +18°C° 0 mm 2 m/S 750 mmHg 79%
    19:00 +17°C° 0 mm 2 m/S 750 mmHg 85%
    20:00 +16°C° 0 mm 1 m/S 750 mmHg 92%
    21:00 +15°C° 0 mm 1 m/S 750 mmHg 92%
    22:00 +15°C° 0 mm 1 m/S 751 mmHg 93%
    23:00 +14°C° 0 mm 1 m/S 751 mmHg 93%

    übermorgen, 17 August, Freitag

    Zeit Temperatur Niederschläge Wind Luftdruck Luftfeuchtigkeit
    00:00 +14°C° 0 mm 1 m/S 751 mmHg 94%
    01:00 +14°C° 0 mm 1 m/S 751 mmHg 95%
    02:00 +13°C° 0 mm 1 m/S 751 mmHg 96%
    03:00 +13°C° 0 mm 1 m/S 752 mmHg 96%
    04:00 +13°C° 0 mm 1 m/S 752 mmHg 96%
    05:00 +12°C° 0 mm 1 m/S 752 mmHg 96%
    06:00 +14°C° 0 mm 2 m/S 752 mmHg 89%
    07:00 +16°C° 0 mm 2 m/S 752 mmHg 81%
    08:00 +18°C° 0 mm 2 m/S 752 mmHg 73%
    09:00 +20°C° 0 mm 2 m/S 752 mmHg 66%
    10:00 +21°C° 0 mm 2 m/S 752 mmHg 60%
    11:00 +24°C° 0 mm 3 m/S 752 mmHg 53%
    12:00 +24°C° 0 mm 3 m/S 752 mmHg 51%
    13:00 +25°C° 0 mm 3 m/S 752 mmHg 49%
    14:00 +26°C° 0 mm 2 m/S 752 mmHg 47%
    15:00 +25°C° 0 mm 2 m/S 752 mmHg 50%
    16:00 +25°C° 0 mm 2 m/S 751 mmHg 53%
    17:00 +25°C° 0 mm 2 m/S 751 mmHg 56%
    18:00 +23°C° 0 mm 2 m/S 751 mmHg 63%
    19:00 +20°C° 0 mm 2 m/S 751 mmHg 71%
    20:00 +18°C° 0 mm 2 m/S 751 mmHg 78%
    21:00 +17°C° 0 mm 2 m/S 751 mmHg 81%
    22:00 +16°C° 0 mm 2 m/S 751 mmHg 84%
    23:00 +16°C° 0 mm 2 m/S 752 mmHg 87%

    18 August, Samstag

    Zeit Temperatur Niederschläge Wind Luftdruck Luftfeuchtigkeit
    00:00 +15°C° 0 mm 2 m/S 751 mmHg 89%
    01:00 +15°C° 0 mm 2 m/S 751 mmHg 91%
    02:00 +14°C° 0 mm 2 m/S 751 mmHg 93%
    03:00 +14°C° 0 mm 2 m/S 751 mmHg 93%
    04:00 +14°C° 0 mm 2 m/S 752 mmHg 94%
    05:00 +14°C° 0 mm 2 m/S 752 mmHg 95%
    06:00 +16°C° 0 mm 2 m/S 752 mmHg 88%
    07:00 +17°C° 0 mm 2 m/S 752 mmHg 81%
    08:00 +19°C° 0 mm 2 m/S 752 mmHg 74%
    09:00 +21°C° 0 mm 2 m/S 752 mmHg 68%
    10:00 +24°C° 0 mm 2 m/S 752 mmHg 63%
    11:00 +25°C° 0 mm 2 m/S 752 mmHg 57%
    12:00 +26°C° 0 mm 2 m/S 751 mmHg 56%
    13:00 +26°C° 0 mm 2 m/S 751 mmHg 54%
    14:00 +27°C° 0 mm 2 m/S 751 mmHg 53%
    15:00 +27°C° 0 mm 2 m/S 751 mmHg 56%
    16:00 +26°C° 0 mm 2 m/S 750 mmHg 59%
    17:00 +26°C° 0 mm 2 m/S 750 mmHg 62%
    18:00 +24°C° 0,1 mm 2 m/S 750 mmHg 71%
    19:00 +21°C° 0,1 mm 2 m/S 750 mmHg 79%
    20:00 +19°C° 0,1 mm 2 m/S 750 mmHg 88%
    21:00 +19°C° 0,1 mm 2 m/S 750 mmHg 90%
    22:00 +18°C° 0,1 mm 2 m/S 750 mmHg 92%
    23:00 +18°C° 0,1 mm 2 m/S 750 mmHg 93%

    19 August, Sonntag

    Zeit Temperatur Niederschläge Wind Luftdruck Luftfeuchtigkeit
    00:00 +18°C° 0 mm 2 m/S 750 mmHg 93%
    01:00 +17°C° 0 mm 2 m/S 750 mmHg 93%
    02:00 +17°C° 0 mm 2 m/S 750 mmHg 93%
    03:00 +17°C° 0,1 mm 2 m/S 750 mmHg 94%
    04:00 +17°C° 0,1 mm 2 m/S 750 mmHg 95%
    05:00 +16°C° 0,1 mm 2 m/S 750 mmHg 96%
    06:00 +17°C° 0,3 mm 2 m/S 750 mmHg 94%
    07:00 +19°C° 0,3 mm 2 m/S 749 mmHg 92%
    08:00 +20°C° 0,3 mm 3 m/S 749 mmHg 91%
    09:00 +21°C° 0,2 mm 3 m/S 749 mmHg 86%
    10:00 +22°C° 0,2 mm 3 m/S 749 mmHg 80%
    11:00 +24°C° 0,2 mm 3 m/S 749 mmHg 75%
    12:00 +24°C° 0,7 mm 3 m/S 749 mmHg 74%
    13:00 +24°C° 0,7 mm 3 m/S 749 mmHg 72%
    14:00 +24°C° 0,7 mm 3 m/S 749 mmHg 70%
    15:00 +23°C° 0,2 mm 2 m/S 749 mmHg 72%
    16:00 +21°C° 0,2 mm 2 m/S 748 mmHg 73%
    17:00 +20°C° 0,2 mm 2 m/S 748 mmHg 75%
    18:00 +19°C° 0 mm 2 m/S 748 mmHg 78%
    19:00 +18°C° 0 mm 2 m/S 748 mmHg 81%
    20:00 +18°C° 0 mm 1 m/S 748 mmHg 84%
    21:00 +18°C° 0 mm 1 m/S 749 mmHg 87%
    22:00 +16°C° 0 mm 1 m/S 749 mmHg 90%
    23:00 +16°C° 0 mm 2 m/S 749 mmHg 93%

    20 August, Montag

    Zeit Temperatur Niederschläge Wind Luftdruck Luftfeuchtigkeit
    00:00 +16°C° 0 mm 1 m/S 749 mmHg 95%
    01:00 +15°C° 0 mm 1 m/S 749 mmHg 96%
    02:00 +15°C° 0 mm 1 m/S 749 mmHg 98%
    03:00 +14°C° 0 mm 1 m/S 749 mmHg 97%
    04:00 +13°C° 0 mm 1 m/S 749 mmHg 97%
    05:00 +13°C° 0 mm 1 m/S 749 mmHg 97%
    06:00 +14°C° 0 mm 1 m/S 749 mmHg 89%
    07:00 +16°C° 0 mm 2 m/S 750 mmHg 82%
    08:00 +17°C° 0 mm 2 m/S 750 mmHg 74%
    09:00 +18°C° 0 mm 2 m/S 750 mmHg 68%
    10:00 +19°C° 0 mm 2 m/S 750 mmHg 61%
    11:00 +21°C° 0 mm 2 m/S 750 mmHg 55%
    12:00 +21°C° 0 mm 2 m/S 750 mmHg 52%
    13:00 +23°C° 0 mm 2 m/S 750 mmHg 50%
    14:00 +23°C° 0 mm 2 m/S 750 mmHg 48%
    15:00 +23°C° 0 mm 2 m/S 750 mmHg 51%
    16:00 +23°C° 0 mm 2 m/S 750 mmHg 54%
    17:00 +23°C° 0 mm 2 m/S 749 mmHg 57%
    18:00 +21°C° 0 mm 1 m/S 750 mmHg 62%
    19:00 +19°C° 0 mm 1 m/S 750 mmHg 68%
    20:00 +16°C° 0 mm 1 m/S 750 mmHg 73%
    21:00 +16°C° 0 mm 1 m/S 750 mmHg 77%
    22:00 +15°C° 0 mm 1 m/S 750 mmHg 80%
    23:00 +14°C° 0 mm 1 m/S 750 mmHg 83%
    Mehr zeigen